KN4JGH Weather Reports


Display with metric or nautical units.
time (UTC)temp
F
wind
direction
speed
MPH
gust
MPH
rain 1hr
in
rain 24hr
in
rain mn
in
humidity
%
barometer
mb
20260906124321 78 181 1.0 2.0 0.00 0.00 0.00 82 1013.4
20260906123317 77 181 1.0 2.0 0.00 0.00 0.00 84 1013.3
20260906122317 76 57 0.0 3.0 0.00 0.00 0.00 86 1013.3
20260906121331 75 107 0.0 3.0 0.00 0.00 0.00 87 1013.2
20260906120327 75 107 2.0 3.0 0.00 0.00 0.00 87 1013.1
20260906115323 75 73 1.0 4.0 0.00 0.00 0.00 87 1013.1
20260906114322 74 260 1.0 5.0 0.00 0.00 0.00 88 1013.0
20260906113317 74 270 1.0 5.0 0.00 0.00 0.00 88 1013.0
20260906112313 74 253 0.0 4.0 0.00 0.00 0.00 89 1012.9
20260906111331 74 296 1.0 4.0 0.00 0.00 0.00 89 1012.9
20260906110328 74 260 1.0 3.0 0.00 0.00 0.00 89 1012.9
20260906105325 74 259 1.0 4.0 0.00 0.00 0.00 89 1012.9
20260906104339 74 147 0.0 2.0 0.00 0.00 0.00 89 1012.7
20260906103338 74 216 2.0 3.0 0.00 0.00 0.00 89 1012.7
20260906102313 74 204 0.0 0.0 0.00 0.00 0.00 89 1012.7
20260906101328 74 198 0.0 1.0 0.00 0.00 0.00 89 1012.7
20260906100323 74 86 1.0 2.0 0.00 0.00 0.00 89 1012.7
20260906095323 74 86 1.0 4.0 0.00 0.00 0.00 89 1012.7
20260906094317 74 249 1.0 4.0 0.00 0.00 0.00 89 1012.8
20260906093314 74 209 2.0 6.0 0.00 0.00 0.00 88 1013.1
20260906092314 75 246 3.0 6.0 0.00 0.00 0.00 88 1013.2
20260906091329 75 214 3.0 6.0 0.00 0.00 0.00 88 1013.3
20260906090325 75 277 2.0 5.0 0.00 0.00 0.00 88 1013.3
20260906085341 75 244 3.0 4.0 0.00 0.00 0.00 87 1013.2
20260906084319 75 288 0.0 2.0 0.00 0.00 0.00 85 1012.8
20260906083314 76 288 1.0 3.0 0.00 0.00 0.00 84 1012.5
20260906082329 76 191 0.0 2.0 0.00 0.00 0.00 83 1012.6
20260906081343 76 191 0.0 4.0 0.00 0.00 0.00 83 1012.7
20260906080341 77 225 1.0 3.0 0.00 0.00 0.00 82 1013.1
20260906075316 77 194 2.0 5.0 0.00 0.00 0.00 82 1013.3
20260906074330 76 250 2.0 5.0 0.00 0.00 0.00 83 1013.7
20260906073330 77 273 4.0 9.0 0.00 0.00 0.00 83 1013.8
20260906072344 77 146 0.0 3.0 0.00 0.00 0.00 82 1013.2
20260906071316 77 238 2.0 3.0 0.00 0.00 0.00 82 1013.0
20260906070312 77 185 1.0 4.0 0.00 0.00 0.00 82 1013.0
20260906065312 77 223 2.0 3.0 0.00 0.00 0.00 81 1013.4
20260906064347 77 195 4.0 7.0 0.00 0.00 0.00 81 1013.4
20260906063321 78 275 1.0 9.0 0.00 0.00 0.00 80 1013.2
20260906062317 78 167 1.0 7.0 0.00 0.00 0.00 80 1013.2
20260906061336 78 177 1.0 10.0 0.00 0.00 0.00 79 1013.3
20260906060331 78 188 5.0 10.0 0.00 0.00 0.00 79 1013.5
20260906055326 79 100 5.0 9.0 0.00 0.00 0.00 79 1013.5
20260906054320 79 176 1.0 13.0 0.00 0.00 0.00 80 1013.5
20260906053320 80 122 4.0 12.0 0.00 0.00 0.00 79 1013.6
20260906052336 80 119 7.0 20.0 0.00 0.00 0.00 78 1013.8
20260906051350 81 83 9.0 17.0 0.00 0.00 0.00 77 1013.8
20260906050324 81 127 6.0 9.0 0.00 0.00 0.00 76 1013.4
20260906045322 81 159 1.0 2.0 0.00 0.00 0.00 77 1013.0
20260906044316 80 188 1.0 2.0 0.00 0.00 0.00 79 1012.8
20260906043330 80 353 0.0 0.0 0.00 0.00 0.00 79 1012.9
20260906042328 79 353 0.0 0.0 0.00 0.00 0.00 80 1012.9
20260906041320 79 353 0.0 0.0 0.00 0.00 0.00 80 1012.9
20260906040336 79 353 0.0 0.0 0.00 0.00 0.00 81 1013.1
20260906035330 79 353 0.0 1.0 0.00 0.00 0.00 82 1013.2
20260906034329 79 353 0.0 1.0 0.00 0.00 0.00 82 1013.3
20260906033325 79 353 0.0 1.0 0.00 0.00 0.00 81 1013.2
20260906032320 80 353 1.0 2.0 0.00 0.00 0.00 82 1013.1
20260906031337 80 353 0.0 1.0 0.00 0.00 0.00 81 1013.1
20260906030330 81 353 0.0 2.0 0.00 0.00 0.00 80 1013.0
20260906025325 81 353 1.0 2.0 0.00 0.00 0.00 79 1012.9
20260906024319 82 353 0.0 1.0 0.00 0.00 0.00 78 1012.6
20260906023319 82 353 1.0 2.0 0.00 0.00 0.00 77 1012.3
20260906022314 83 353 0.0 2.0 0.00 0.00 0.00 77 1012.2
20260906021349 83 353 2.0 2.0 0.00 0.00 0.00 75 1012.1
20260906020325 84 353 0.0 2.0 0.00 0.00 0.00 74 1012.1
20260906015325 85 353 1.0 3.0 0.00 0.00 0.00 71 1011.8
20260906014320 86 14 2.0 4.0 0.00 0.00 0.00 70 1011.7
20260906013316 85 210 2.0 8.0 0.00 0.00 0.00 70 1011.8
20260906012315 84 119 2.0 4.0 0.00 0.00 0.00 76 1011.9
20260906011330 84 350 0.0 1.0 0.00 0.00 0.00 77 1011.7
20260906010326 84 350 0.0 2.0 0.00 0.00 0.00 77 1011.8
20260906005339 84 350 1.0 2.0 0.00 0.00 0.00 77 1011.8
20260906004317 85 350 1.0 2.0 0.00 0.00 0.00 76 1011.7
20260906003313 85 350 1.0 2.0 0.00 0.00 0.00 75 1011.6
20260906002329 86 350 1.0 2.0 0.00 0.00 0.00 74 1011.5
20260906001328 87 350 1.0 2.0 0.00 0.00 0.00 72 1011.4
20260906000326 88 350 1.0 3.0 0.00 0.00 0.00 70 1011.4
20260905235319 89 34 1.0 2.0 0.00 0.00 0.00 67 1011.4
20260905234351 90 34 1.0 3.0 0.00 0.00 0.00 66 1011.4
20260905233350 92 15 1.0 4.0 0.00 0.00 0.00 64 1011.5
20260905232325 93 29 1.0 3.0 0.00 0.00 0.00 60 1011.4
20260905231320 95 14 2.0 4.0 0.00 0.00 0.00 56 1011.4
20260905230336 96 350 2.0 4.0 0.00 0.00 0.00 53 1011.2
20260905225315 97 42 3.0 5.0 0.00 0.00 0.00 51 1011.4
20260905224329 98 24 3.0 6.0 0.00 0.00 0.00 49 1011.4
20260905223325 98 24 3.0 8.0 0.00 0.00 0.00 48 1011.6
20260905222325 99 29 3.0 5.0 0.00 0.00 0.00 46 1011.6
20260905221320 100 46 3.0 6.0 0.00 0.00 0.00 45 1011.4
20260905220316 99 34 3.0 6.0 0.00 0.00 0.00 45 1011.5
20260905215317 100 356 3.0 7.0 0.00 0.00 0.00 42 1011.6
20260905214332 101 53 4.0 7.0 0.00 0.00 0.00 43 1011.6
20260905213347 102 264 2.0 9.0 0.00 0.00 0.00 42 1011.7
20260905212340 102 324 3.0 6.0 0.00 0.00 0.00 42 1011.7
20260905211352 101 46 1.0 9.0 0.00 0.00 0.00 43 1011.7
20260905210330 102 46 3.0 10.0 0.00 0.00 0.00 43 1011.9
20260905205325 102 325 4.0 9.0 0.00 0.00 0.00 45 1011.9
20260905204340 102 24 5.0 8.0 0.00 0.00 0.00 45 1012.0
20260905203319 101 317 3.0 8.0 0.00 0.00 0.00 43 1012.2
20260905202316 101 359 4.0 8.0 0.00 0.00 0.00 46 1012.4
20260905201351 100 47 2.0 10.0 0.00 0.00 0.00 49 1012.5
20260905200326 101 29 3.0 9.0 0.00 0.00 0.00 47 1012.7
20260905195325 101 308 5.0 10.0 0.00 0.00 0.00 47 1012.8
20260905194319 100 250 4.0 8.0 0.00 0.00 0.00 46 1012.9
20260905193315 99 268 1.0 8.0 0.00 0.00 0.00 48 1013.1
20260905192315 100 348 4.0 8.0 0.00 0.00 0.00 48 1013.1
20260905191329 100 75 3.0 9.0 0.00 0.00 0.00 51 1013.3
20260905190325 99 78 3.0 8.0 0.00 0.00 0.00 53 1013.6
20260905185320 98 94 2.0 6.0 0.00 0.00 0.00 53 1013.7
20260905184316 98 323 2.0 8.0 0.00 0.00 0.00 48 1013.8
20260905183312 98 60 1.0 7.0 0.00 0.00 0.00 51 1014.1
20260905182348 98 9 4.0 8.0 0.00 0.00 0.00 50 1014.1
20260905181322 97 45 5.0 10.0 0.00 0.00 0.00 52 1014.3
20260905180322 98 240 1.0 4.0 0.00 0.00 0.00 53 1014.3
20260905175317 96 358 2.0 9.0 0.00 0.00 0.00 56 1014.4
20260905174332 97 67 4.0 10.0 0.00 0.00 0.00 56 1014.5
20260905173352 95 356 4.0 9.0 0.00 0.00 0.00 57 1014.5
20260905172327 95 61 3.0 9.0 0.00 0.00 0.00 58 1014.5
20260905171322 95 159 1.0 4.0 0.00 0.00 0.00 59 1014.7
20260905170338 94 90 2.0 6.0 0.00 0.00 0.00 60 1014.7
20260905165336 94 236 2.0 8.0 0.00 0.00 0.00 61 1014.8
20260905164329 93 15 1.0 4.0 0.00 0.00 0.00 63 1015.0
20260905163325 92 29 2.0 6.0 0.00 0.00 0.00 63 1015.2
20260905162320 93 44 3.0 5.0 0.00 0.00 0.00 63 1015.3
20260905161320 91 91 4.0 6.0 0.00 0.00 0.00 65 1015.3
20260905160335 90 86 2.0 6.0 0.00 0.00 0.00 67 1015.3
20260905155327 90 51 3.0 6.0 0.00 0.00 0.00 68 1015.5
20260905154341 89 298 2.0 5.0 0.00 0.00 0.00 69 1015.5
20260905153341 88 95 3.0 5.0 0.00 0.00 0.00 72 1015.6
20260905152316 88 48 1.0 4.0 0.00 0.00 0.00 71 1015.5
20260905151350 86 40 2.0 6.0 0.00 0.00 0.00 73 1015.6
20260905150325 85 43 3.0 5.0 0.00 0.00 0.00 73 1015.7
20260905145325 84 223 0.0 2.0 0.00 0.00 0.00 78 1015.7
20260905144318 84 223 0.0 1.0 0.00 0.00 0.00 81 1015.8
20260905143314 83 223 0.0 3.0 0.00 0.00 0.00 81 1015.8
20260905142332 82 252 1.0 3.0 0.00 0.00 0.00 82 1015.8
20260905141326 80 327 0.0 0.0 0.00 0.00 0.00 84 1015.8
20260905140343 80 327 0.0 0.0 0.00 0.00 0.00 87 1015.8
20260905135317 79 327 1.0 2.0 0.00 0.00 0.00 87 1015.9
20260905134336 78 43 0.0 0.0 0.00 0.00 0.00 89 1015.9
20260905133351 78 43 0.0 0.0 0.00 0.00 0.00 90 1015.9
20260905132326 77 43 0.0 0.0 0.00 0.00 0.00 92 1015.9
20260905131320 76 43 0.0 0.0 0.00 0.00 0.00 93 1016.0
20260905130320 76 43 0.0 0.0 0.00 0.00 0.00 94 1015.9
20260905125315 75 43 0.0 0.0 0.00 0.00 0.00 94 1015.9